Flag Weather past 2 weeks in Naples, Italy

Now
14 °F

Passing clouds.


Feels Like: 14 °F
Forecast: 52 / 69 °F
Wind: 2 mph from Northeast

Location: Naples / Capodichino

Current Time: Nov 23, 2014 at 4:49:10 AM

Latest Report: Nov 23, 2014 at 3:50 AM


Visibility: 5 mi

Pressure: 30.27 "Hg

Humidity: 100%

Dew point: 14 °F

Location of NaplesLocation

Historic Weather in Naples — Graph

°F

Naples temperature yesterday

Maximum temperature yesterday: 66 °F (at 12:20 PM)
Minimum temperature yesterday: 46 °F (at 6:20 AM)
Average temperature yesterday: 56 °F

Past Weeks' High & Low Weather Summary

 TemperatureHumidityPressure
High75 °F (Nov 8, 12:20 PM)100% (Nov 12, 8:50 PM)30.27 "Hg (Nov 12, 8:50 PM)
Low46 °F (Nov 21, 11:50 PM)33% (Nov 20, 2:20 PM)29.65 "Hg (Nov 12, 4:50 AM)
Average62 °F76%29.95 "Hg
* Reported Nov 8 2:20 AM — Nov 23 2:50 AM, Naples, Weather by CustomWeather, © 2014

Note: Actual official high and low records may vary slightly from our data, if they occured in-between our weather recording intervals... More about our weather records

Advertising

Naples weather history for previous 24 hours

 ConditionsComfort  
Time TempWeatherWind HumidityBarometerVisibility
2:50 AM
Nov 23
50 °FPassing clouds.2 mph82%30.27 "Hg5 mi
2:20 AM52 °FPassing clouds.3 mph82%30.27 "Hg5 mi
1:50 AM50 °FPassing clouds.2 mph88%30.27 "Hg5 mi
1:20 AM50 °FPassing clouds.2 mph88%30.27 "Hg5 mi
12:50 AM52 °FPassing clouds.3 mph82%30.27 "Hg5 mi
12:20 AM50 °FPassing clouds.3 mph88%30.27 "Hg5 mi
11:50 PM
Nov 22
52 °FClear.1 mph82%30.27 "Hg5 mi
11:20 PM54 °FClear.2 mph77%30.27 "Hg5 mi
10:50 PM52 °FClear.2 mph82%30.27 "Hg5 mi
10:20 PM50 °FClear.2 mph82%30.27 "Hg5 mi
9:50 PM54 °FClear.2 mph82%30.27 "Hg5 mi
9:20 PM54 °FClear.1 mph77%30.27 "Hg5 mi
8:50 PM54 °FClear.No wind82%30.24 "Hg5 mi
7:50 PM55 °FClear.1 mph77%30.24 "Hg10 mi
7:20 PM61 °FClear.2 mph63%30.24 "Hg10 mi
6:50 PM59 °FClear.No wind68%30.24 "Hg10 mi
6:20 PM61 °FClear.2 mph63%30.24 "Hg10 mi
5:50 PM55 °FClear.2 mph72%30.24 "Hg10 mi
5:20 PM63 °FClear.No wind52%30.24 "Hg10 mi
4:50 PM63 °FClear.No wind52%30.24 "Hg10 mi
4:20 PM66 °FSunny.3 mph46%30.21 "Hg10 mi
3:50 PM66 °FSunny.2 mph43%30.24 "Hg10 mi
3:20 PM66 °FSunny.2 mph43%30.21 "Hg10 mi
2:50 PM66 °FPassing clouds.3 mph46%30.21 "HgN/A
2:20 PM66 °FPassing clouds.5 mph43%30.21 "HgN/A
1:50 PM66 °FSunny.2 mph46%30.21 "Hg10 mi
12:50 PM66 °FPassing clouds.5 mph46%30.24 "HgN/A
12:20 PM66 °FPassing clouds.3 mph46%30.24 "HgN/A
11:50 AM64 °FSunny.2 mph49%30.24 "Hg10 mi
11:20 AM63 °FPassing clouds.3 mph56%30.24 "HgN/A
10:50 AM61 °FPassing clouds.3 mph59%30.24 "HgN/A
9:50 AM57 °FPassing clouds.3 mph63%30.24 "HgN/A
9:20 AM55 °FSunny.3 mph67%30.24 "Hg10 mi
8:50 AM54 °FSunny.3 mph77%30.21 "Hg10 mi
8:20 AM54 °FSunny.2 mph77%30.21 "Hg10 mi
7:50 AM50 °FPassing clouds.3 mph82%30.21 "HgN/A
7:20 AM48 °FSunny.3 mph82%30.21 "Hg10 mi
6:50 AM50 °FClear.3 mph82%30.21 "Hg10 mi
6:20 AM46 °FClear.2 mph82%30.21 "Hg10 mi
4:50 AM48 °FClear.2 mph82%30.21 "Hg5 mi
4:20 AM48 °FClear.3 mph82%30.21 "Hg5 mi
Weather by CustomWeather, © 2014

See weather overviewHow to use our weather pages